W5DNT Weather Reports


time (UTC)temp
F
wind
direction
speed
knots
gust
knots
rain 1hr
in
rain 24hr
in
rain mn
in
humidity
%
barometer
mb
20260906231613 93 130 0.0 0.9 0.00 0.04 0.03 49 1009.4
20260906224607 94 108 0.0 1.7 0.00 0.04 0.03 49 1009.6
20260906223107 94 140 0.0 0.9 0.00 0.04 0.03 49 1009.5
20260906221606 94 117 0.0 3.5 0.00 0.04 0.03 48 1009.6
20260906220057 95 123 0.0 0.9 0.00 0.04 0.03 47 1009.6
20260906214555 96 300 0.0 6.1 0.00 0.04 0.03 48 1009.6
20260906213053 96 213 0.0 3.5 0.00 0.04 0.03 48 1009.8
20260906211551 95 131 0.0 6.1 0.00 0.04 0.03 47 1010.0
20260906210107 95 190 0.0 1.7 0.00 0.04 0.03 48 1010.1
20260906204547 95 148 0.0 8.7 0.00 0.04 0.03 48 1010.3
20260906203044 95 98 0.0 6.1 0.00 0.04 0.03 48 1010.7
20260906201606 94 103 0.0 3.5 0.00 0.04 0.03 51 1010.8
20260906200042 93 102 0.0 0.9 0.00 0.04 0.03 53 1010.9
20260906194543 92 127 0.0 0.9 0.00 0.04 0.03 52 1011.0
20260906193040 93 122 0.0 0.9 0.00 0.04 0.03 51 1011.1
20260906191553 94 112 0.0 7.8 0.00 0.04 0.03 51 1011.2
20260906190039 94 134 0.0 4.3 0.00 0.04 0.03 51 1011.4
20260906184545 94 122 0.0 8.7 0.00 0.04 0.03 53 1011.4
20260906183041 94 101 0.0 0.9 0.00 0.04 0.03 55 1011.7
20260906181552 93 126 0.0 1.7 0.00 0.04 0.03 55 1011.8
20260906180031 92 115 0.0 0.9 0.00 0.04 0.03 54 1011.9
20260906174529 91 122 0.0 0.9 0.00 0.04 0.03 58 1012.2
20260906173030 92 110 0.0 0.9 0.00 0.04 0.03 57 1012.3
20260906171534 92 129 0.0 0.0 0.00 0.04 0.03 58 1012.6
20260906170027 92 43 0.0 0.9 0.00 0.04 0.03 62 1012.7
20260906164525 92 86 0.0 1.7 0.00 0.04 0.03 62 1012.8
20260906163026 91 5 0.0 0.0 0.00 0.04 0.03 67 1013.0
20260906161520 90 265 0.0 0.0 0.00 0.04 0.03 68 1013.0
20260906160015 89 68 0.0 0.0 0.00 0.04 0.03 66 1013.1
20260906154513 88 307 0.0 0.0 0.00 0.04 0.03 70 1013.1
20260906153010 88 92 0.0 0.0 0.00 0.04 0.03 68 1013.0
20260906151508 86 119 0.0 0.0 0.00 0.04 0.03 71 1012.9
20260906150003 85 137 0.0 0.0 0.00 0.04 0.03 72 1013.0
20260906144559 84 138 0.0 0.0 0.00 0.05 0.03 74 1013.2
20260906143056 82 141 0.0 0.0 0.00 0.05 0.03 74 1013.1
20260906141559 81 141 0.0 0.0 0.00 0.05 0.03 76 1013.2
20260906140103 79 141 0.0 0.0 0.01 0.05 0.03 78 1013.1
20260906134603 78 141 0.0 0.0 0.01 0.05 0.03 80 1012.9
20260906133051 76 141 0.0 0.0 0.01 0.05 0.03 78 1012.8
20260906131548 75 141 0.0 0.0 0.01 0.05 0.03 78 1012.9
20260906130055 75 141 0.0 0.0 0.00 0.04 0.02 78 1012.6
20260906124542 0 0.0 0.0 0.00 0.04 0.02 1012.4
20260906123037 0 0.0 0.0 0.00 0.04 0.02 1012.2
20260906121533 0 0.0 0.0 0.00 0.04 0.02 1011.9
20260906120028 0 0.0 0.0 0.01 0.04 0.02 1011.8
20260906114536 74 141 0.0 0.0 0.01 0.04 0.02 75 1011.6
20260906113026 74 141 0.0 0.0 0.01 0.04 0.02 75 1011.6
20260906111528 74 141 0.0 0.0 0.01 0.04 0.02 75 1011.2
20260906110022 74 141 0.0 0.0 0.00 0.03 0.01 75 1011.1
20260906104521 75 141 0.0 0.0 0.00 0.03 0.01 75 1011.0
20260906103020 75 141 0.0 0.0 0.00 0.03 0.01 74 1010.9
20260906101521 75 141 0.0 0.0 0.00 0.03 0.01 74 1011.0
20260906100018 75 141 0.0 0.0 0.00 0.03 0.01 74 1010.8
20260906094516 75 141 0.0 0.0 0.00 0.03 0.01 74 1010.9
20260906093016 75 141 0.0 0.0 0.00 0.03 0.01 73 1010.9
20260906091518 76 141 0.0 0.0 0.01 0.03 0.01 72 1010.8
20260906090013 77 141 0.0 0.0 0.01 0.03 0.01 72 1010.8
20260906084509 77 141 0.0 0.0 0.01 0.03 0.01 71 1010.6
20260906083011 78 141 0.0 0.0 0.01 0.03 0.01 71 1010.7
20260906081507 78 141 0.0 0.0 0.00 0.02 0.00 70 1010.8
20260906080008 78 141 0.0 0.0 0.00 0.02 0.00 70 1010.9
20260906074504 78 141 0.0 0.0 0.00 0.02 0.00 70 1011.1
20260906073004 79 141 0.0 0.0 0.00 0.02 0.00 70 1011.0
20260906071611 79 141 0.0 0.0 0.00 0.02 0.00 70 1011.3
20260906070058 79 141 0.0 0.0 0.00 0.02 0.00 68 1011.3
20260906064555 80 141 0.0 0.0 0.00 0.02 0.00 67 1011.3
20260906063054 80 141 0.0 0.0 0.00 0.02 0.00 67 1011.5
20260906061553 80 141 0.0 0.0 0.00 0.02 0.00 66 1011.5
20260906060123 80 141 0.0 0.0 0.00 0.02 0.00 66 1011.7
20260906054549 81 141 0.0 0.0 0.00 0.02 0.00 66 1011.7
20260906053047 81 141 0.0 0.0 0.00 0.02 0.00 66 1011.6
20260906051545 82 141 0.0 0.0 0.00 0.02 0.00 65 1011.9
20260906050043 82 141 0.0 0.0 0.00 0.02 0.00 64 1011.9
20260906044543 83 141 0.0 0.0 0.01 0.03 0.02 63 1011.8
20260906043041 83 141 0.0 0.0 0.01 0.03 0.02 64 1011.8
20260906041541 84 141 0.0 0.0 0.01 0.03 0.02 64 1011.7
20260906040041 84 129 0.0 0.9 0.01 0.03 0.02 63 1011.6
20260906034541 85 120 0.0 0.9 0.00 0.02 0.01 62 1011.7
20260906033040 85 133 0.0 0.9 0.00 0.02 0.01 62 1011.4
20260906031605 86 108 0.0 0.0 0.00 0.02 0.01 62 1011.4
20260906030039 86 136 0.0 7.0 0.00 0.02 0.01 61 1011.3
20260906024542 87 107 0.0 7.0 0.00 0.02 0.01 62 1011.2
20260906023043 87 98 0.0 6.1 0.00 0.02 0.01 61 1011.0
20260906021535 88 109 0.0 2.6 0.00 0.02 0.01 59 1010.8
20260906020045 88 109 0.0 7.0 0.00 0.02 0.01 58 1010.5
20260906014535 89 111 0.0 0.9 0.00 0.02 0.01 53 1010.2
20260906013034 90 137 0.0 0.9 0.00 0.02 0.01 50 1009.9
20260906011534 91 127 0.0 0.0 0.00 0.02 0.01 47 1009.6
20260906010034 92 127 0.0 0.0 0.00 0.02 0.01 46 1009.4
20260906004534 93 144 0.0 0.9 0.00 0.02 0.01 46 1009.5
20260906003031 93 123 0.0 2.6 0.00 0.02 0.01 45 1009.4
20260906001540 94 107 0.0 0.9 0.00 0.02 0.01 45 1009.4
20260906000031 94 116 0.0 1.7 0.00 0.02 0.01 44 1009.3
20260905234532 94 125 0.9 8.7 0.00 0.02 0.01 44 1009.3
20260905233033 95 149 0.0 1.7 0.00 0.02 0.01 44 1009.3